CW9197 Juva FI current weather conditions

sailwx.info

Wind from 225

Air temperature 1.7° C
Dewpoint -0.3° C

Last reported at 2014-Oct-01 19:14 UTC.
Time now 2014-Oct-01 20:30 UTC

Location: N 61°53' E 027°53'.
View on Google Maps.

See reports from other nearby stations

  
Tides and Currents Weather Stations Pressure Air Temp Water Temp Dewpoint Dewpoint Depression Visibility Wind Speed Wind Dir Waves Ship Positions
date/time (UTC)wind fromknots sea level pressurealtimeterstation pressurevisibilityair tempwater tempwave heightnotes
2014-Oct-01 19:14 225 1.7
2014-Oct-01 19:04 225 0 gusting 1 2.2
2014-Oct-01 18:44 225 0 gusting 1 2.2
2014-Oct-01 18:34 225 0 gusting 1 2.2
2014-Oct-01 18:24 223 0 gusting 0 2.2
2014-Oct-01 18:14 247 2.8
2014-Oct-01 17:54 180 2.8
2014-Oct-01 17:44 202 3.3
2014-Oct-01 17:34 204 3.3
2014-Oct-01 17:24 220 0 gusting 2 3.3
2014-Oct-01 17:14 202 3.9
2014-Oct-01 17:04 214 0 gusting 1 3.9
2014-Oct-01 16:54 202 3.9
2014-Oct-01 16:44 180 3.9
2014-Oct-01 16:34 157 4.4
2014-Oct-01 16:24 183 0 gusting 0 5.0
2014-Oct-01 16:14 180 5.0
2014-Oct-01 15:44 337 5.6
2014-Oct-01 15:34 337 5.6
2014-Oct-01 15:24 337 6.1
2014-Oct-01 15:14 337 6.1
2014-Oct-01 15:04 345 6.1
2014-Oct-01 14:54 045 6.1
2014-Oct-01 14:34 315 6.7
2014-Oct-01 14:24 315 6.7
2014-Oct-01 14:04 239 1 gusting 3 7.2
2014-Oct-01 13:54 283 1 gusting 4 7.2
2014-Oct-01 13:04 248 2 gusting 6 7.8
2014-Oct-01 12:54 215 0 gusting 3 7.8
2014-Oct-01 12:44 259 0 gusting 3 7.8
2014-Oct-01 12:04 270 0 gusting 4 8.3
2014-Oct-01 11:53 257 2 gusting 3 8.3
2014-Oct-01 11:43 247 2 gusting 6 8.3
2014-Oct-01 11:23 234 2 gusting 4 7.8
2014-Oct-01 11:03 236 2 gusting 4 7.8
2014-Oct-01 10:53 212 7.8
2014-Oct-01 10:43 065 1 gusting 5 7.8
2014-Oct-01 10:33 014 1 gusting 4 7.8
2014-Oct-01 10:13 339 2 gusting 4 7.8
2014-Oct-01 10:03 032 1 gusting 3 7.8
2014-Oct-01 09:53 316 0 gusting 6 7.8
2014-Oct-01 09:33 288 1 gusting 4 7.2
2014-Oct-01 09:03 319 1 gusting 4 6.7
2014-Oct-01 08:53 045 1 gusting 2 6.1
2014-Oct-01 08:33 244 2 gusting 3 5.6
2014-Oct-01 08:23 249 1 gusting 3 5.6
2014-Oct-01 08:13 090 5.6
2014-Oct-01 07:53 042 1 gusting 3 5.6
2014-Oct-01 07:23 057 0 gusting 2 4.4
2014-Oct-01 07:13 048 1 gusting 3 4.4
2014-Oct-01 06:53 012 1 gusting 3 4.4
2014-Oct-01 06:43 022 3.9
2014-Oct-01 06:23 013 0 gusting 2 3.9
2014-Oct-01 06:13 045 4.4
2014-Oct-01 05:53 022 2.2
2014-Oct-01 05:43 085 0 gusting 2 1.7
2014-Oct-01 05:33 008 0 gusting 4 1.7
2014-Oct-01 05:23 025 1 gusting 4 1.1
2014-Oct-01 05:13 358 0 gusting 5 0.6
2014-Oct-01 04:33 350 0 gusting 4 0.6
2014-Oct-01 04:23 352 0 gusting 3 0.6
2014-Oct-01 04:03 341 0 gusting 3 0.6
2014-Oct-01 03:43 347 1 gusting 4 0.6
2014-Oct-01 03:33 344 0 gusting 6 1.1
2014-Oct-01 03:23 327 2 gusting 6 1.1
2014-Oct-01 03:03 298 1 gusting 6 1.1
2014-Oct-01 02:43 357 0 gusting 4 1.1
2014-Oct-01 02:33 345 1 gusting 4 1.1
2014-Oct-01 02:23 336 2 gusting 5 1.1
2014-Oct-01 02:13 342 1 gusting 4 1.7
2014-Oct-01 01:53 294 1 gusting 6 1.7
2014-Oct-01 01:32 282 0 gusting 4 1.7
2014-Oct-01 01:22 341 1 gusting 6 1.7
2014-Oct-01 01:12 319 1 gusting 6 1.7
2014-Oct-01 01:02 348 1 gusting 3 1.7
2014-Oct-01 00:32 278 1 gusting 3 1.7
2014-Oct-01 00:22 310 0 gusting 3 1.7
2014-Oct-01 00:02 310 0 gusting 3 2.2
2014-Sep-30 23:52 2.2
2014-Sep-30 23:32 006 0 gusting 2 2.2
2014-Sep-30 23:22 031 2.8
2014-Sep-30 22:52 354 0 gusting 4 2.8
2014-Sep-30 22:32 349 0 gusting 3 3.3
2014-Sep-30 22:22 359 0 gusting 4 3.3
2014-Sep-30 22:12 346 2 gusting 5 3.3
2014-Sep-30 21:52 352 2 gusting 5 3.9
2014-Sep-30 21:42 351 1 gusting 5 3.9
2014-Sep-30 21:32 319 1 gusting 5 4.4
2014-Sep-30 21:12 321 1 gusting 5 4.4
2014-Sep-30 21:02 331 1 gusting 5 5.0
2014-Sep-30 20:52 317 1 gusting 4 5.0
2014-Sep-30 20:42 322 1 gusting 7 5.0
2014-Sep-30 20:32 314 1 gusting 6 5.0
2014-Sep-30 20:12 318 0 gusting 3 5.6
2014-Sep-30 19:52 323 0 gusting 2 5.6
2014-Sep-30 19:42 338 0 gusting 2 6.1
2014-Sep-30 19:22 334 0 gusting 2 6.1
2014-Sep-30 19:02 330 1 gusting 4 6.1
2014-Sep-30 18:52 330 1 gusting 4 6.1
2014-Sep-30 18:42 349 1 gusting 4 6.7
2014-Sep-30 18:32 357 0 gusting 6 6.7
2014-Sep-30 18:12 065 2 gusting 6 6.7
2014-Sep-30 17:52 333 1 gusting 2 6.7
2014-Sep-30 17:32 358 2 gusting 4 6.7
2014-Sep-30 17:22 352 2 gusting 5 6.7
2014-Sep-30 17:12 326 1 gusting 4 6.7
2014-Sep-30 16:52 355 3 gusting 7 6.7
2014-Sep-30 16:42 325 2 gusting 6 6.7
2014-Sep-30 16:32 319 2 gusting 5 6.1
2014-Sep-30 16:21 350 1 gusting 5 6.1
2014-Sep-30 16:01 346 1 gusting 5 6.1
2014-Sep-30 15:51 349 1 gusting 4 6.1
2014-Sep-30 15:41 355 6.7
2014-Sep-30 15:31 335 0 gusting 6 6.7
2014-Sep-30 15:01 002 2 gusting 6 7.2
2014-Sep-30 14:51 348 5 gusting 9 7.8
2014-Sep-30 14:41 353 2 gusting 11 7.8
2014-Sep-30 14:21 018 2 gusting 6 7.8
2014-Sep-30 14:01 345 2 gusting 7 7.8
2014-Sep-30 13:51 355 1 gusting 10 7.8
2014-Sep-30 13:31 340 5 gusting 11 8.3
2014-Sep-30 13:11 324 2 gusting 10 8.3
2014-Sep-30 13:01 333 2 gusting 7 8.3
2014-Sep-30 12:51 335 2 gusting 9 8.3
2014-Sep-30 12:41 354 4 gusting 9 8.3
2014-Sep-30 12:21 336 5 gusting 12 8.3
2014-Sep-30 12:11 330 2 gusting 9 8.3
2014-Sep-30 12:01 340 3 gusting 10 8.3
2014-Sep-30 11:51 300 3 gusting 10 8.3
2014-Sep-30 11:41 349 3 gusting 9 8.3
2014-Sep-30 11:21 335 11 gusting 13 8.3
2014-Sep-30 11:11 339 6 gusting 11 8.3
2014-Sep-30 11:01 339 1 gusting 10 8.3
2014-Sep-30 10:51 336 3 gusting 10 7.8
2014-Sep-30 10:41 353 4 gusting 8 7.8
2014-Sep-30 10:21 345 3 gusting 10 7.8
2014-Sep-30 09:51 331 5 gusting 11 7.8
2014-Sep-30 09:31 321 4 gusting 13 7.8
2014-Sep-30 09:21 321 4 gusting 7 8.3
2014-Sep-30 08:51 327 6 gusting 11 8.9
2014-Sep-30 08:11 324 4 gusting 11 7.8
2014-Sep-30 07:51 325 2 gusting 12 7.8
2014-Sep-30 07:41 326 4 gusting 11 7.2
2014-Sep-30 07:31 322 6 gusting 12 7.2
2014-Sep-30 07:01 319 5 gusting 11 7.2
2014-Sep-30 06:30 320 4 gusting 11 7.8
2014-Sep-30 06:20 332 6 gusting 10 7.8
2014-Sep-30 05:50 311 2 gusting 10 7.8
2014-Sep-30 04:40 326 6 gusting 14 8.3
2014-Sep-30 04:30 333 5 gusting 10 8.3
2014-Sep-30 04:20 315 8 gusting 8 8.3